Theta_e
336 337 323 317 306 304 298 309 317 316 317 324 326 322 318 319 317 309 337 344 351 351 355 359 360 357 357 357 356 356 355 356 355 355 355 355 355 355 354 354 354 354 353 353 352 352 352 352 352
326 329 319 311 301 297 301 309 315 318 323 327 327 325 324 322 333 332 334 347 352 352 353 356 360 359 358 357 356 355 355 355 354 354 354 354 354 354 354 354 354 354 354 354 354 354 355 354 354
324 319 312 304 298 296 300 312 318 321 325 325 321 328 325 325 334 334 339 350 352 350 351 354 359 359 357 357 356 356 355 354 353 353 353 353 353 353 353 353 354 354 353 354 354 354 355 355 355
316 314 310 302 299 301 313 319 321 322 324 327 327 322 330 337 334 336 348 350 348 347 349 355 359 358 357 356 355 355 354 353 353 352 352 353 354 355 356 355 355 354 354 354 354 354 354 354 353
310 308 300 296 301 305 315 322 323 320 321 323 326 321 324 337 340 344 346 347 345 345 347 353 359 357 356 355 355 354 355 355 354 353 354 354 356 356 356 355 355 355 355 355 355 356 357 356 355
304 303 295 292 299 307 314 323 321 317 321 323 322 322 324 337 336 338 343 343 346 345 347 350 356 358 358 358 357 356 356 355 355 355 354 354 355 356 357 357 356 355 354 356 355 357 357 357 356
302 299 295 297 301 303 313 319 318 318 319 322 325 319 326 334 337 337 340 342 344 346 347 347 350 354 357 358 357 356 355 354 353 353 353 355 355 356 355 355 356 355 357 357 356 353 353 352 354
305 302 301 301 301 304 311 318 320 319 320 328 329 319 322 332 339 342 342 340 339 343 345 343 345 347 347 347 355 355 354 354 353 353 355 355 350 347 352 348 353 352 351 351 350 346 346 346 350
307 298 295 301 303 305 314 314 320 323 322 326 328 327 331 341 341 339 337 337 336 338 340 340 340 340 342 342 344 352 354 355 355 352 351 343 333 333 336 345 344 345 350 348 345 343 343 341 344
301 296 297 306 309 308 314 315 319 320 320 322 326 331 337 340 338 336 335 334 333 333 335 337 338 339 341 345 344 345 347 348 347 345 341 329 329 330 332 335 337 342 343 338 335 336 336 334 336
297 296 299 303 311 310 315 314 320 318 316 322 323 326 332 335 336 336 335 336 335 336 338 338 337 338 340 342 341 343 343 343 343 337 332 326 327 326 324 322 321 324 326 322 323 326 326 326 328
295 301 302 306 315 309 311 315 319 319 320 327 328 329 330 332 333 334 334 335 338 338 339 339 340 337 335 331 334 338 338 337 333 327 326 325 323 325 323 321 320 321 321 319 319 322 323 324 326
296 300 303 307 310 306 313 314 319 319 323 328 329 328 328 330 331 331 334 335 334 331 333 335 334 329 324 323 322 323 324 326 327 324 325 325 324 323 323 322 319 319 321 319 317 319 319 319 319
301 300 299 302 304 305 309 309 320 319 327 327 326 326 326 328 328 329 329 328 330 329 329 328 325 326 324 323 322 322 323 322 322 323 324 325 323 322 322 321 320 321 321 319 318 317 319 318 317
299 300 300 300 304 304 311 305 309 316 327 324 325 324 324 325 329 328 328 327 329 328 328 326 325 325 323 322 321 321 324 322 322 323 325 324 323 322 322 321 321 322 322 320 321 320 320 319 317
297 296 292 298 303 306 306 299 308 322 325 321 322 322 323 325 325 326 328 326 328 326 326 329 334 325 322 320 322 323 321 320 321 321 322 322 322 320 318 316 316 318 320 319 320 319 318 318 317
296 292 293 297 300 305 300 296 305 322 324 320 321 321 321 322 325 326 327 327 327 325 325 327 328 324 322 327 323 320 319 320 319 319 318 320 319 317 315 314 314 315 315 316 317 318 317 317 317
292 293 295 294 299 299 296 295 302 312 320 317 317 319 320 320 322 324 329 328 327 326 325 326 326 324 325 325 320 320 319 320 321 318 317 317 317 317 315 314 314 314 314 314 314 313 314 315 316
298 296 296 298 300 297 296 298 302 311 315 314 315 316 318 319 321 324 327 328 323 325 323 324 323 323 326 325 324 321 322 321 316 316 318 317 317 316 315 313 313 313 311 312 313 312 312 312 313
298 295 294 298 301 299 298 299 304 309 312 314 314 315 317 317 319 321 324 325 321 322 323 323 324 325 325 324 324 319 317 315 314 315 314 316 316 316 316 313 312 312 310 311 311 312 311 311 312
296 295 295 296 298 298 298 298 298 306 313 316 316 316 317 316 317 319 321 322 322 322 323 325 325 324 324 322 319 315 313 312 312 312 313 314 315 315 314 313 312 311 310 308 309 309 310 308 311
294 300 300 298 295 290 294 289 295 299 306 311 314 315 316 316 318 319 320 320 320 321 326 326 324 322 322 320 316 313 310 309 310 310 312 312 313 313 313 312 311 310 309 309 310 312 311 311 308
299 300 298 297 292 290 292 291 293 298 301 305 310 314 316 317 317 318 319 320 321 322 325 325 323 322 320 317 315 312 311 310 311 310 309 310 310 311 311 311 311 309 309 311 312 310 309 309 308
302 298 295 292 290 286 290 291 291 295 299 301 304 307 315 318 318 318 320 321 320 322 324 323 322 319 317 316 315 313 311 310 308 307 306 307 307 308 309 310 309 310 310 310 311 312 309 308 308
299 292 286 285 285 286 291 291 293 297 301 303 305 308 311 316 317 317 318 317 318 319 321 320 316 315 313 313 311 310 309 309 307 306 305 306 306 306 307 308 309 310 311 311 311 310 309 308 306
295 293 287 283 283 286 292 289 294 300 302 304 306 311 315 316 315 316 317 316 316 318 317 313 312 311 310 308 308 310 309 308 307 307 306 305 304 305 308 309 310 310 311 310 310 308 307 307 306
296 293 294 288 287 286 288 293 298 301 302 303 305 311 312 313 314 314 315 315 312 311 311 310 309 307 307 308 310 309 308 307 307 306 305 304 305 306 309 309 309 309 309 309 308 307 307 307 307
299 299 292 290 285 283 287 289 291 297 299 301 303 305 308 310 310 313 314 312 308 308 306 306 306 306 307 309 308 308 307 307 306 305 304 304 305 307 307 308 308 309 309 309 308 307 308 307 307
298 294 292 291 289 285 283 287 297 298 300 300 302 303 304 305 306 309 309 307 306 304 304 304 305 306 307 307 307 306 306 306 305 304 303 304 307 307 307 307 308 307 307 308 307 307 307 306 306
298 294 292 289 287 288 286 288 298 299 300 301 301 302 302 302 303 304 305 305 304 304 304 304 305 305 307 307 306 305 305 304 303 302 303 307 307 307 307 307 307 307 307 308 307 306 307 306 306
Wind_Speed
7 6 1 4 7 7 3 3 1 3 1 2 6 3 3 2 1 3 3 4 6 6 6 7 9 9 9 8 7 7 6 6 6 6 6 6 6 6 5 5 5 4 4 4 4 4 4 5 5
6 4 3 3 8 5 5 3 4 3 2 5 5 4 2 2 1 3 4 5 7 6 5 6 10 9 9 7 6 6 5 5 5 4 5 5 4 5 5 5 5 5 5 5 5 5 6 5 5
6 3 4 6 4 4 4 3 3 4 6 3 4 2 2 1 1 5 3 10 8 6 5 5 9 8 9 8 7 6 5 4 3 3 3 4 4 5 5 6 6 7 7 8 7 7 7 8 8
4 4 5 6 3 3 7 6 5 6 2 3 4 4 2 2 8 6 10 11 9 6 6 7 9 9 9 7 6 5 3 2 1 1 2 3 5 5 5 7 8 8 8 9 9 9 8 9 9
5 4 5 4 3 1 2 7 8 5 2 2 2 4 1 3 4 9 10 9 8 5 5 4 7 7 7 7 6 5 3 1 1 2 4 4 4 5 5 6 7 8 8 9 9 9 9 9 9
5 4 6 2 4 3 1 7 7 4 3 2 4 4 1 1 5 6 7 7 6 6 4 3 7 6 6 6 5 4 3 2 3 4 4 5 6 5 5 6 6 8 7 7 7 8 10 10 9
6 5 4 4 2 3 7 5 6 7 5 5 6 4 2 1 3 7 6 5 5 5 5 4 4 5 6 5 4 3 3 4 4 4 6 6 6 6 5 4 4 6 6 4 5 6 6 7 7
6 5 3 4 4 6 6 8 6 7 5 3 3 6 5 3 8 8 6 7 8 7 7 7 5 4 3 3 4 4 4 3 3 5 7 7 5 3 6 6 5 5 5 4 5 7 6 7 8
4 6 1 4 5 4 6 6 2 4 7 5 6 6 6 12 11 6 6 3 2 6 8 7 7 7 6 4 4 4 3 4 3 5 7 4 3 3 3 5 6 4 5 5 5 6 6 7 8
5 4 9 7 6 8 12 5 11 5 9 6 4 6 11 13 11 13 10 9 6 7 6 8 7 6 5 4 4 3 2 2 1 1 2 2 4 4 3 4 4 3 5 5 5 4 5 5 2
3 6 5 5 7 8 13 7 6 11 6 10 15 12 13 10 11 14 8 7 11 7 2 3 1 4 4 3 3 1 1 0 1 2 2 3 4 4 4 3 3 3 1 0 2 1 1 2 2
1 7 3 4 8 8 12 10 6 15 10 9 15 17 15 16 14 13 9 4 2 2 2 4 3 2 2 1 1 3 2 1 1 3 4 3 3 4 4 3 4 4 3 4 4 2 3 2 1
4 4 5 3 6 5 10 9 8 15 5 11 10 13 12 11 10 2 1 6 5 3 3 3 4 3 3 5 3 3 4 3 4 4 4 4 3 4 3 3 3 3 3 2 3 3 2 3 4
3 5 1 6 4 4 8 5 9 9 7 8 13 12 7 8 4 2 6 4 3 4 5 4 5 2 3 4 4 4 4 4 4 4 3 4 3 3 4 4 4 3 3 3 3 3 3 2 3
2 2 8 6 3 3 10 3 10 5 11 10 11 9 7 4 4 5 4 2 5 2 4 5 3 3 3 5 5 3 4 4 4 4 5 5 5 5 4 3 3 4 4 5 3 2 1 3 3
6 7 4 4 3 3 7 8 9 9 16 10 9 8 7 4 4 5 6 4 3 4 5 4 3 4 3 3 3 4 5 4 3 3 3 5 5 4 4 3 3 4 4 3 3 2 3 3 3
8 3 4 4 4 4 2 1 6 9 14 11 8 6 5 4 1 2 6 4 3 3 5 5 5 3 5 4 4 5 5 3 3 2 2 3 4 4 4 3 4 4 4 4 4 3 3 3 3
1 4 3 3 6 7 5 4 6 3 4 4 4 4 3 5 7 4 5 3 1 3 5 4 3 4 4 4 4 3 3 1 1 2 2 3 2 3 2 2 3 3 4 5 4 4 4 4 4
6 3 2 3 4 6 4 4 7 3 7 6 5 5 5 7 2 3 3 2 4 2 2 3 4 3 3 2 2 2 2 2 2 1 2 3 2 2 1 1 3 3 3 4 6 4 4 2 1
5 2 3 5 5 7 2 7 5 4 2 1 2 5 7 4 4 4 0 1 3 3 2 4 4 4 4 2 2 1 1 1 2 2 2 1 1 2 1 3 3 4 4 5 4 4 3 2 1
1 4 1 4 4 6 4 7 7 2 3 2 1 2 4 7 8 5 4 2 3 3 4 5 5 4 4 3 1 2 1 1 2 1 2 2 4 3 3 4 3 4 3 4 5 5 4 2 2
1 2 2 3 4 2 3 3 4 5 5 3 4 5 7 7 6 5 5 5 5 6 4 5 7 6 4 1 0 1 1 2 2 2 2 4 4 5 5 4 4 3 4 5 6 4 4 3 4
2 3 3 3 5 4 9 6 6 3 3 5 6 8 8 7 8 8 7 6 6 6 5 6 4 5 2 2 1 1 2 2 2 3 5 5 5 5 6 6 6 5 4 5 6 3 3 2 2
2 4 7 5 4 5 5 4 4 4 7 3 4 6 8 7 7 7 6 5 5 3 5 5 5 4 3 3 3 3 5 5 4 4 4 5 4 5 7 7 6 6 7 5 6 3 3 3 3
7 8 6 7 8 4 5 3 8 5 3 5 7 8 8 7 6 5 6 5 5 7 7 3 2 4 3 4 5 4 3 2 3 4 3 5 4 5 8 7 6 6 6 6 5 3 4 4 5
4 6 7 1 1 5 5 0 6 2 3 4 5 6 6 7 3 6 6 6 7 5 2 2 0 3 3 3 3 2 2 1 2 2 3 4 4 6 8 9 7 7 6 6 5 3 5 6 7
2 5 4 7 3 2 3 5 7 0 2 1 5 6 8 5 6 7 6 7 3 2 3 1 1 2 3 4 2 2 3 3 4 5 5 5 6 6 7 8 8 7 6 6 6 5 7 7 7
3 6 4 4 1 3 5 4 6 5 8 7 8 10 7 5 5 6 6 2 1 1 2 3 1 2 3 3 2 3 4 4 5 5 7 7 7 6 7 8 8 7 7 7 7 6 7 7 4
3 2 7 5 4 5 2 7 8 9 10 11 9 7 7 6 5 5 1 1 1 2 2 2 2 2 2 2 3 4 5 5 5 5 7 8 6 6 7 7 7 7 7 7 6 7 7 7 6
2 3 5 7 5 1 3 9 4 7 9 9 6 6 5 4 3 1 4 4 3 5 5 4 3 4 4 3 3 5 5 5 6 7 8 7 6 6 7 7 7 7 7 7 7 7 5 5 5
Wind_Direction
131 143 106 60 55 63 355 317 286 104 158 240 117 106 143 103 150 220 299 151 136 126 137 137 155 150 140 133 128 119 111 103 95 93 88 78 70 66 61 51 44 42 31 23 25 21 16 17 20
127 109 41 82 82 64 293 263 136 237 136 106 73 93 62 53 97 114 110 172 134 135 140 142 161 158 147 145 140 132 129 117 109 93 79 72 55 44 32 18 8 356 349 348 348 346 338 337 340
164 173 77 88 103 152 189 230 164 105 136 98 109 100 112 174 97 174 171 144 132 140 147 168 164 160 161 162 163 157 157 144 125 73 55 43 31 13 4 348 343 336 332 332 334 332 327 321 323
142 20 33 74 112 220 174 166 136 152 76 77 116 80 94 238 161 182 144 140 141 148 156 179 173 176 171 172 173 183 173 168 103 58 23 3 357 350 342 336 327 323 326 327 327 323 318 312 312
35 54 54 61 329 211 150 152 156 158 93 132 146 168 57 4 75 128 137 138 139 145 163 185 186 185 183 187 191 190 209 224 311 327 343 344 337 333 326 319 317 319 319 321 323 317 308 299 295
39 88 49 58 315 339 33 166 156 134 113 189 116 103 236 344 127 126 116 124 134 153 171 185 190 196 195 198 203 206 233 275 303 328 326 332 323 319 314 313 317 330 326 316 317 311 306 297 287
104 82 163 202 148 225 187 178 178 133 137 232 162 96 323 235 65 98 90 95 121 144 155 194 191 207 217 226 212 219 257 278 310 320 321 331 325 327 331 333 342 344 352 351 348 359 356 351 328
105 88 147 237 152 246 192 164 129 123 200 102 193 174 195 199 117 103 114 149 165 173 182 192 191 212 204 250 256 231 232 267 293 321 329 324 348 30 73 69 57 39 27 43 51 39 21 25 25
131 71 244 240 164 218 170 136 141 140 133 224 188 152 162 125 122 110 191 152 165 190 186 182 189 194 186 201 226 251 285 284 332 343 335 359 334 346 48 76 73 47 65 62 50 34 22 26 35
102 127 219 208 191 184 177 122 151 129 160 257 104 78 118 141 147 189 184 181 190 205 219 191 176 198 179 183 182 197 206 290 317 334 346 334 309 304 350 3 27 100 101 84 52 43 67 62 49
158 204 204 238 199 169 158 128 154 136 214 230 169 151 155 167 178 201 195 204 194 191 196 259 225 181 192 192 149 144 142 246 324 28 32 332 328 333 339 333 331 330 77 9 87 123 149 130 125
276 248 202 263 178 143 171 138 146 169 205 210 175 161 162 182 189 206 202 206 190 118 172 135 137 174 228 121 149 148 143 196 59 27 13 349 319 310 318 322 334 341 350 325 323 298 294 246 202
212 259 167 194 182 106 126 174 154 213 312 154 131 168 182 187 199 256 25 71 97 155 111 115 116 149 149 120 134 102 89 79 75 40 17 4 337 320 320 345 337 330 327 318 303 295 300 315 326
230 283 90 107 197 129 122 135 116 238 154 145 155 180 174 204 152 68 50 64 124 128 101 107 133 156 130 124 102 90 86 79 72 63 50 48 41 19 15 3 359 351 336 314 297 298 296 272 281
259 348 21 18 158 125 113 68 223 180 166 159 174 173 174 192 109 104 78 120 176 140 124 134 120 101 100 98 92 86 89 83 76 69 59 63 56 56 47 29 7 345 340 334 336 317 285 301 300
46 53 60 314 34 214 117 247 242 185 166 172 178 173 173 132 97 107 76 72 153 138 145 150 158 168 126 105 96 79 75 82 104 123 130 101 99 81 51 18 342 327 321 313 308 298 291 278 274
13 52 18 332 24 141 88 154 295 190 183 177 173 183 171 127 108 118 73 51 154 142 146 191 180 167 109 107 117 120 114 122 143 165 122 83 65 48 30 355 328 335 322 311 305 295 263 277 274
227 66 19 52 345 45 47 51 345 309 205 90 125 157 173 183 213 89 85 72 43 129 193 179 166 110 113 125 107 87 121 114 240 214 87 82 68 46 33 338 337 339 333 321 311 263 269 256 265
96 82 90 309 359 78 37 77 341 358 72 121 174 180 220 230 265 103 121 133 25 94 137 143 133 177 167 183 179 227 196 224 248 293 317 39 22 1 341 301 329 333 314 289 295 285 275 276 222
66 41 341 298 11 88 17 38 78 33 38 356 186 219 236 280 261 253 173 333 33 321 189 151 170 207 218 186 203 194 114 310 275 277 288 183 320 320 354 351 318 313 309 319 319 313 314 294 224
74 136 226 223 19 45 41 6 359 62 85 48 100 261 270 256 271 285 289 281 294 302 218 200 195 204 221 208 88 26 28 302 329 322 344 314 329 333 326 302 282 299 307 302 292 287 258 266 273
14 261 267 267 71 185 45 236 327 345 354 333 274 265 257 252 258 258 250 250 231 249 220 198 185 199 220 251 221 100 197 289 264 298 297 308 316 308 300 294 280 283 294 283 274 261 251 220 253
200 46 32 60 92 85 351 79 268 3 334 276 268 247 244 239 237 247 247 242 234 244 218 220 198 248 305 241 220 338 291 255 310 311 302 311 321 313 318 320 304 290 273 269 267 246 242 250 280
121 82 42 50 67 42 308 109 287 184 210 244 265 253 251 247 243 248 253 276 271 225 201 204 217 276 269 304 321 325 301 314 318 326 335 331 315 314 312 303 289 276 274 267 278 236 229 221 239
52 52 1 10 14 231 334 46 232 266 257 219 231 250 246 245 238 249 244 239 232 212 218 206 190 258 322 350 3 329 296 352 335 324 309 314 306 299 294 290 281 270 270 279 267 238 247 255 252
55 116 140 210 252 274 320 327 274 262 283 300 250 270 252 243 241 240 226 218 225 236 109 123 128 300 356 349 312 15 31 305 281 274 280 269 268 279 280 288 287 291 286 284 265 257 262 262 254
149 57 161 104 13 41 284 301 327 31 259 307 246 241 242 233 225 231 231 228 309 92 147 176 20 349 334 320 5 329 293 296 278 281 281 274 276 281 291 294 289 289 291 282 268 266 262 264 252
103 147 57 16 138 282 299 276 241 247 234 245 247 235 245 241 233 238 241 249 85 80 73 99 92 258 307 351 304 276 285 260 265 284 275 280 281 279 295 300 295 291 296 292 278 269 267 263 249
19 31 51 111 121 169 239 267 219 224 216 211 228 237 245 251 249 246 244 151 126 91 134 200 252 303 298 265 272 278 270 277 294 283 287 274 283 293 300 301 300 300 298 293 287 276 276 266 264
101 94 110 108 275 123 157 270 259 255 244 204 221 232 248 269 264 158 186 170 167 202 213 223 249 253 241 255 283 283 288 291 290 295 290 290 290 301 298 305 304 294 292 293 289 291 296 286 272